Regional Weather Roundup
Issued by NWS Raleigh/Durham, NC

Home | Current Version | Previous Version | Text Only | Print | Product List | Glossary On
Versions: 1 2 3 4 5 6 7 8 9 10 11 12 13 14 15 16 17 18 19 20 21 22 23 24 25 26 27 28 29 30 31 32 33 34 35 36 37 38 39 40 41 42 43 44 45 46 47 48 49 50
000
ASUS42 KRAH 301810
RWRRAH
NORTH CAROLINA WEATHER ROUNDUP
NATIONAL WEATHER SERVICE RALEIGH NC
200 PM EDT FRI SEP 30 2016

NOTE: "FAIR" INDICATES FEW OR NO CLOUDS BELOW 12,000 FEET WITH NO
SIGNIFICANT WEATHER AND/OR OBSTRUCTIONS TO VISIBILITY.

NCZ001-053-055-056-065-067-301900-
WESTERN NORTH CAROLINA

CITY           SKY/WX    TMP DP  RH WIND       PRES   REMARKS
ASHEVILLE      SUNNY     70  45  40 W9        30.02F
JEFFERSON      PTSUNNY   64  55  73 SE7       30.05F
MORGANTON      SUNNY     76  47  35 SW8       30.04F
HICKORY        SUNNY     77  50  38 S8        29.99F
RUTHERFORDTON  SUNNY     75  47  37 CALM      30.01S
MOUNT AIRY     SUNNY     79  64  59 S9G17     30.02F
BOONE          MOSUNNY   68  50  52 SE12G21   30.06S
$$

NCZ021-022-025-041-071-084-088-301900-
CENTRAL NORTH CAROLINA

CITY           SKY/WX    TMP DP  RH WIND       PRES   REMARKS
CHARLOTTE      MOSUNNY   80  47  31 S14       29.99F
GREENSBORO     MOSUNNY   80  65  59 S12       29.98F
WINSTON-SALEM  MOSUNNY   80  58  46 VRB7      29.99F
RALEIGH-DURHAM PTSUNNY   79  71  76 SE14G21   30.00F
FORT BRAGG     MOSUNNY   82  71  68 SE8       29.97F
FAYETTEVILLE   PTSUNNY   84  72  67 SE10      29.98F
BURLINGTON     MOSUNNY   81  72  74 SE10      29.98F
LAURINBURG     MOSUNNY   85  69  58 SW12      29.99F
$$

NCZ011-015-027-028-043-044-047-080-103-301900-
NORTHEASTERN NORTH CAROLINA

CITY           SKY/WX    TMP DP  RH WIND       PRES   REMARKS
ROCKY MT-WILSO CLOUDY    80  75  84 S8        30.02S
GREENVILLE     CLOUDY    81  79  94 S6        30.05S
WASHINGTON     LGT RAIN  73  71  93 N12       30.01F
ELIZABETH CITY CLOUDY    81  73  76 E12       30.05F
MANTEO         MOSUNNY   82  73  74 S8        30.06F
CAPE HATTERAS  PTSUNNY   84  74  71 SE14      30.06S
$$

NCZ078-087-090-091-093-098-101-301900-
SOUTHEASTERN NORTH CAROLINA

CITY           SKY/WX    TMP DP  RH WIND       PRES   REMARKS
LUMBERTON      MOSUNNY   85  72  65 VRB6      29.97F
GOLDSBORO      MOSUNNY   77  75  93 SE5       30.00F
KINSTON        MOSUNNY   77  70  78 S7        30.04F
KENANSVILLE    CLOUDY    75  70  83 SE5       30.03F
NEW BERN       LGT RAIN  75  72  90 SE12      30.05S FOG
CHERRY POINT   NOT AVBL
BEAUFORT       CLOUDY    77  74  90 W8        30.06S
JACKSONVILLE   LGT RAIN  74  70  87 E3        30.02F
WILMINGTON     CLOUDY    76  73  91 E6        30.01F
$$




USA.gov is the U.S. government's official web portal to all federal, state and local government web resources and services.